Vertical_Velocity
-0 1 1 1 1 1 -3 -3 4 -4 -3 4 -1 1 1 -1 3 -8 -0 -2 -2 1 -1 -2 -2 -0 -1 1 -2 -4 0 0 0 0 -1 1 -0 -1 -1 -4 -1 -0 -2 -0 -1 -0 -2 -1 -1
1 1 -0 2 -1 -3 39 -16 9 5 -1 -0 -2 2 1 -11 -2 -1 -1 -1 -0 -2 -0 -1 -2 -2 0 2 -4 -1 -5 -1 2 1 0 -2 -2 -1 -2 -1 -1 -2 -1 1 -5 0 0 1 0
-0 -0 -1 2 -0 0 19 -6 -4 -3 -1 0 -4 2 1 -0 -1 1 -1 -2 -0 -0 -1 -1 -3 -2 -2 2 -2 -1 -3 1 0 -0 4 -2 -3 -2 -1 -1 -2 -2 -1 -2 -0 -1 -2 -1 0
0 -1 0 1 -0 10 -0 -5 -2 -4 -3 -2 2 -5 -4 8 0 3 0 -2 -1 -3 1 -3 -1 -2 -1 0 -0 -2 2 0 -1 -2 4 2 -1 -1 -1 -2 -5 -2 -2 -4 0 -2 -2 -2 0
2 4 2 1 2 6 4 -7 1 -4 -3 1 3 -8 3 -2 5 -2 -1 -2 -3 -2 -0 -3 1 -0 -3 -1 -1 -2 -4 -0 1 0 -1 2 -0 -3 -1 -0 -1 -4 -2 -3 -0 1 -1 -1 -0
-0 1 4 3 8 -7 3 -2 2 -1 -1 0 4 5 -2 -2 7 3 -1 -1 -0 -5 -3 -2 -0 -1 -2 -4 -0 -1 -4 -1 -2 -1 -0 -1 1 -1 -0 -1 -1 -2 -3 -2 -3 0 -0 -2 0
1 -1 4 4 4 2 -14 11 -5 4 1 -6 12 1 -6 -14 16 2 2 -1 -0 -2 -1 0 1 -1 -1 -1 -2 -2 0 -2 1 -2 -3 -1 -2 -0 2 -2 -4 -2 -3 -1 -3 -0 -0 1 -2
-2 2 2 2 3 5 -2 6 -3 2 1 -1 -2 -3 0 -1 -2 -2 3 2 -0 -1 -2 1 1 2 0 0 -2 -0 -3 1 -3 2 -0 -1 -2 -2 2 -3 -2 -1 -3 -2 -2 -2 1 0 1
1 -2 0 5 -3 1 -1 2 -8 5 1 -3 -3 -2 3 -3 0 -1 0 5 2 1 0 0 -1 -1 1 -3 -1 -3 -1 -0 -0 -2 3 -0 -3 -0 0 -2 -2 -0 -4 -2 -2 -2 0 2 2
2 0 4 -1 -1 2 -1 0 -3 1 1 0 -2 -4 2 1 2 1 -2 0 6 2 3 -2 -0 -0 1 -2 0 -2 -2 -0 1 -2 0 -1 -1 -2 -2 -1 -1 -3 -1 -2 -2 -2 -1 1 -3
1 3 -3 -1 3 2 -0 -2 3 0 1 -7 -1 -1 -1 2 -1 3 0 -1 -1 3 -0 1 -0 0 1 -2 -1 -1 -1 -2 -0 1 1 2 0 0 -4 -3 -1 -1 -0 -2 -2 -1 -2 0 -1
-1 -2 3 -4 5 2 1 -0 4 -2 -0 -0 -1 1 -2 -1 -1 0 2 2 -1 0 3 -1 -2 0 2 -3 -0 0 1 -2 -3 -1 -0 0 1 1 -0 -6 -3 -1 -0 1 -1 -0 -0 -0 1
0 -2 0 -0 1 -0 3 0 1 -7 0 -0 2 -1 1 -2 1 -2 2 -2 4 2 -4 -0 -0 1 2 -3 -1 -3 -1 1 -2 -4 0 -1 0 0 2 -1 -4 -3 -1 0 -1 1 2 -1 0
3 -2 -2 -0 0 1 1 -1 -2 -5 -1 -2 -0 0 0 -0 -2 3 1 -0 -2 -0 3 2 0 -0 2 -1 -2 0 -4 -5 -0 1 -4 -0 -1 1 -0 1 -1 -4 -2 -1 1 2 3 2 1
-1 1 -0 -1 -4 -0 0 -1 -4 2 -1 -1 1 -0 -1 -1 1 -2 -2 4 5 -0 3 -2 0 -1 -2 0 1 -1 0 -6 -6 0 0 -5 -2 -2 -1 -1 1 -2 -3 -1 2 0 3 3 2
1 3 1 -12 5 2 -2 5 -5 -6 -1 3 2 -2 -0 1 -2 -1 -2 1 1 5 -0 0 -2 -0 -0 2 2 3 -0 1 -4 -6 1 -3 -1 -4 -4 -0 -2 2 -2 -2 1 1 0 0 2
-0 4 -4 -4 -0 -1 -4 4 -8 -4 -2 2 0 -3 -0 -0 2 -3 -1 0 2 -1 2 6 3 -1 -1 1 -2 -1 2 -0 1 -8 -4 1 -2 -1 -4 -4 -1 -3 1 -2 -0 0 -0 1 1
1 -3 -0 3 -16 5 -2 -4 -0 -4 -5 -1 -0 -3 1 2 3 9 -3 2 -2 8 -3 1 14 6 2 1 3 -1 1 -3 -3 -10 -9 1 1 2 -2 -5 -0 -3 -2 0 -2 1 0 -0 0
-0 -2 -0 1 -8 3 -7 2 -7 -7 -2 -1 -3 -1 -4 -4 -3 -4 -2 -7 -10 -3 3 17 -12 3 19 -11 -5 -2 -4 4 13 -2 -10 3 7 -2 0 -5 -4 0 -2 -2 -2 -1 -0 -0 -3
-1 -0 -2 3 -1 -1 5 -3 -4 2 -3 -2 -1 -2 1 -2 2 -0 -7 -9 -8 -7 -7 -5 -1 -14 -6 29 -3 -10 2 -2 5 6 3 -8 10 -4 2 -1 -1 -1 -1 -1 0 -1 -0 0 -1
-5 5 -2 -1 -1 -2 6 -7 -21 -5 2 2 -5 -0 1 -8 -8 -6 -6 -17 -11 -9 -10 -12 -11 -3 -3 -2 18 13 10 7 2 0 10 -17 1 -0 4 1 -2 4 -4 2 -2 -1 1 -1 1
-3 13 -2 -1 -5 7 -5 27 9 -16 -8 -1 -4 -2 -1 -5 1 -5 -8 -20 -12 -4 -9 -3 2 1 -1 -0 -14 14 13 15 19 10 15 3 -4 6 0 2 -4 5 -4 2 1 -3 -1 2 -0
-14 -2 -1 -1 0 -5 -1 7 29 -17 -8 -3 -0 -4 -7 -9 -12 -10 -6 -4 -3 -5 -9 -3 4 6 6 7 -7 -10 3 0 6 3 23 29 -13 5 2 -4 -2 4 -5 -0 2 -1 2 -1 -1
-1 -0 -2 -4 3 -2 -6 7 14 7 3 -2 -3 -3 -8 -4 1 -7 -1 -7 -9 -15 -7 -11 -9 3 -3 4 7 -8 0 -13 -16 -5 6 29 30 7 1 -9 2 3 1 2 2 -3 -1 -1 -2
2 0 1 -3 -11 10 -2 4 6 -18 7 -3 1 -6 -4 -9 -4 -4 -3 -3 -1 -2 -6 4 -2 8 -1 1 -2 3 8 -0 -24 2 10 14 88 -14 13 -3 -3 1 8 2 -1 0 -1 -0 0
8 1 2 -4 -2 2 -8 -4 -34 -5 4 -2 -6 -9 -10 -7 -8 -6 -6 -4 -11 -3 -6 -4 -7 -4 -3 2 -1 -0 9 -7 -7 5 -1 -3 82 -5 25 12 -5 1 1 1 1 1 -2 0 -0
4 -8 4 -3 -6 -2 4 -4 1 -5 -6 -11 -7 -6 -3 -9 -6 -3 3 -1 -11 2 -7 -3 -6 -5 1 2 0 -3 7 -10 -5 -7 -30 -17 -28 44 1 13 -8 -4 4 -1 -0 -0 1 -3 -0
0 4 0 3 -4 -0 8 -5 17 -8 -8 -7 -4 -2 -2 -2 3 -3 -0 -1 -2 -3 -3 -6 -2 2 0 3 5 -13 10 2 -18 26 -1 23 34 6 -30 -12 -9 2 4 -1 -2 1 -0 -1 3
1 -1 -3 -4 4 -3 2 5 -1 5 9 -4 -7 -4 -7 -3 -2 -4 -1 -4 -2 -2 -4 -5 1 4 6 7 13 14 -16 -20 5 10 -39 -55 57 1 62 -12 21 3 0 2 2 0 -2 -1 -4
2 2 -2 1 -13 7 -5 18 4 -8 15 0 -5 -3 -6 -2 -8 -3 -4 -3 -3 -1 -1 -5 1 3 -4 11 16 21 4 -5 28 58 -16 131 25 54 13 -27 6 -0 -3 6 0 -2 2 -2 -0
Height
5854 5853 5853 5853 5857 5856 5857 5857 5852 5851 5851 5851 5850 5851 5851 5850 5851 5851 5849 5848 5848 5848 5846 5845 5844 5843 5842 5842 5840 5839 5837 5835 5834 5834 5832 5832 5831 5831 5831 5830 5828 5827 5827 5826 5824 5823 5821 5821 5820
5850 5850 5851 5851 5853 5856 5861 5851 5849 5847 5847 5847 5847 5848 5848 5845 5846 5846 5845 5845 5845 5844 5843 5843 5842 5841 5839 5839 5838 5837 5835 5834 5832 5831 5831 5829 5828 5828 5828 5827 5826 5826 5826 5824 5823 5821 5820 5819 5818
5846 5847 5848 5849 5850 5853 5855 5845 5843 5843 5844 5844 5843 5844 5844 5842 5843 5841 5841 5841 5840 5840 5840 5839 5839 5838 5837 5836 5835 5835 5833 5832 5831 5829 5828 5827 5826 5825 5824 5825 5825 5825 5824 5823 5822 5820 5819 5817 5816
5842 5843 5844 5845 5847 5850 5844 5839 5840 5839 5839 5840 5839 5837 5839 5839 5838 5838 5837 5836 5837 5836 5836 5836 5836 5835 5834 5833 5833 5832 5832 5830 5828 5828 5825 5824 5824 5823 5822 5822 5823 5823 5822 5821 5820 5818 5817 5816 5814
5838 5838 5839 5839 5841 5842 5836 5835 5836 5834 5833 5835 5835 5833 5833 5830 5833 5833 5833 5832 5833 5832 5832 5831 5831 5831 5831 5830 5829 5829 5828 5827 5826 5825 5823 5824 5822 5820 5820 5820 5821 5820 5821 5819 5817 5816 5816 5815 5813
5832 5833 5834 5835 5838 5830 5830 5830 5831 5830 5829 5829 5830 5829 5828 5826 5830 5830 5829 5828 5827 5827 5827 5827 5827 5827 5826 5827 5827 5826 5825 5824 5823 5823 5822 5821 5821 5819 5818 5817 5818 5818 5818 5817 5816 5815 5814 5813 5812
5827 5828 5830 5829 5830 5827 5823 5827 5825 5826 5825 5823 5826 5824 5823 5821 5826 5824 5825 5824 5823 5822 5822 5822 5822 5822 5822 5822 5823 5822 5821 5821 5820 5821 5820 5818 5818 5818 5816 5816 5815 5815 5815 5815 5814 5813 5812 5812 5811
5822 5823 5824 5824 5824 5823 5821 5822 5820 5821 5821 5819 5819 5820 5819 5818 5817 5817 5817 5817 5817 5817 5816 5816 5817 5817 5817 5816 5816 5818 5818 5817 5818 5817 5817 5817 5816 5815 5816 5815 5813 5812 5812 5812 5812 5812 5811 5810 5809
5816 5818 5819 5817 5818 5817 5815 5816 5813 5817 5815 5814 5813 5814 5813 5811 5810 5809 5809 5810 5811 5811 5810 5810 5811 5811 5812 5812 5811 5812 5814 5814 5814 5814 5814 5814 5813 5813 5812 5812 5812 5810 5811 5810 5810 5810 5810 5809 5807
5809 5810 5809 5809 5809 5811 5809 5809 5809 5810 5809 5808 5807 5806 5806 5805 5804 5803 5801 5801 5803 5804 5803 5803 5804 5805 5805 5805 5806 5805 5807 5809 5810 5810 5810 5810 5810 5811 5809 5810 5810 5809 5809 5807 5807 5808 5808 5808 5806
5802 5802 5798 5799 5802 5802 5802 5801 5802 5801 5801 5799 5800 5797 5797 5797 5796 5795 5794 5793 5792 5795 5796 5797 5797 5798 5799 5799 5800 5800 5800 5802 5805 5805 5806 5805 5806 5807 5807 5807 5807 5806 5806 5805 5805 5805 5805 5805 5804
5796 5794 5794 5791 5794 5793 5794 5794 5793 5793 5793 5792 5790 5790 5788 5787 5787 5786 5786 5787 5786 5786 5787 5788 5789 5790 5792 5792 5793 5794 5794 5795 5798 5800 5801 5801 5801 5803 5803 5803 5803 5803 5803 5802 5802 5801 5802 5801 5801
5788 5786 5788 5786 5786 5786 5785 5786 5786 5785 5785 5784 5783 5781 5779 5778 5777 5778 5778 5777 5779 5779 5778 5779 5780 5781 5783 5784 5785 5786 5788 5789 5790 5793 5796 5796 5797 5798 5799 5799 5799 5800 5800 5799 5798 5798 5799 5799 5798
5782 5779 5780 5779 5778 5778 5778 5777 5777 5777 5777 5776 5773 5772 5771 5771 5770 5770 5770 5770 5768 5769 5771 5771 5772 5773 5775 5777 5778 5779 5780 5781 5783 5785 5789 5791 5791 5792 5794 5795 5795 5796 5797 5796 5796 5795 5796 5796 5796
5773 5773 5773 5772 5771 5769 5770 5769 5765 5769 5768 5767 5764 5764 5763 5762 5762 5761 5760 5760 5760 5759 5758 5760 5763 5763 5763 5765 5768 5770 5772 5773 5774 5777 5780 5784 5786 5787 5787 5789 5790 5792 5792 5792 5793 5792 5792 5793 5792
5767 5767 5766 5762 5765 5762 5762 5762 5758 5759 5758 5758 5757 5755 5754 5753 5752 5750 5748 5747 5748 5750 5750 5750 5749 5752 5753 5754 5756 5759 5762 5763 5765 5768 5772 5776 5778 5780 5781 5782 5784 5786 5787 5787 5788 5789 5789 5789 5789
5760 5761 5758 5759 5754 5756 5754 5753 5752 5751 5750 5748 5747 5745 5745 5743 5741 5738 5736 5735 5736 5735 5736 5738 5735 5736 5737 5740 5741 5744 5747 5751 5755 5757 5762 5766 5769 5772 5776 5777 5778 5781 5782 5782 5783 5784 5785 5785 5785
5754 5753 5753 5753 5748 5747 5747 5744 5744 5743 5742 5740 5737 5733 5731 5729 5728 5725 5723 5723 5723 5722 5719 5719 5718 5720 5719 5720 5722 5727 5732 5736 5740 5744 5749 5756 5759 5765 5768 5772 5773 5775 5777 5777 5778 5780 5781 5782 5782
5748 5746 5745 5745 5743 5741 5739 5737 5735 5733 5732 5729 5726 5723 5719 5716 5712 5708 5705 5703 5701 5701 5699 5698 5693 5696 5693 5694 5699 5704 5712 5718 5724 5728 5736 5744 5749 5754 5760 5763 5767 5769 5771 5772 5773 5774 5776 5777 5778
5740 5739 5738 5737 5735 5733 5731 5730 5726 5724 5723 5720 5717 5713 5707 5703 5700 5696 5690 5685 5681 5677 5671 5670 5664 5665 5665 5664 5665 5675 5685 5696 5706 5714 5722 5730 5738 5744 5750 5753 5758 5762 5763 5765 5767 5769 5770 5773 5773
5733 5732 5731 5730 5728 5727 5722 5718 5713 5712 5711 5709 5706 5701 5696 5691 5686 5679 5671 5664 5658 5650 5642 5637 5632 5630 5627 5627 5634 5638 5651 5665 5680 5692 5703 5712 5724 5732 5738 5743 5748 5754 5755 5758 5760 5763 5765 5767 5768
5725 5724 5723 5722 5721 5720 5717 5716 5712 5703 5701 5699 5693 5688 5683 5679 5673 5663 5655 5645 5637 5629 5624 5619 5615 5611 5609 5606 5607 5614 5622 5630 5651 5672 5688 5697 5710 5719 5726 5733 5738 5745 5747 5750 5753 5755 5758 5761 5763
5717 5716 5715 5713 5711 5710 5711 5708 5706 5696 5689 5688 5684 5679 5674 5668 5660 5650 5638 5626 5619 5612 5607 5598 5593 5589 5590 5587 5587 5593 5601 5615 5633 5647 5667 5680 5692 5704 5714 5721 5728 5735 5738 5741 5745 5747 5751 5754 5756
5710 5708 5707 5705 5703 5702 5700 5700 5697 5691 5685 5681 5675 5669 5663 5657 5645 5633 5624 5614 5605 5595 5585 5580 5573 5568 5563 5562 5566 5573 5584 5601 5616 5634 5651 5668 5671 5689 5700 5709 5717 5724 5729 5733 5737 5739 5743 5747 5749
5701 5700 5700 5698 5695 5697 5690 5690 5688 5681 5679 5674 5667 5660 5652 5642 5631 5623 5614 5604 5595 5583 5572 5564 5551 5545 5536 5535 5539 5551 5566 5582 5602 5623 5637 5652 5659 5672 5686 5701 5706 5714 5721 5724 5729 5731 5734 5738 5742
5693 5692 5691 5690 5691 5691 5684 5681 5675 5672 5671 5665 5657 5648 5639 5631 5622 5615 5605 5594 5582 5568 5559 5548 5535 5526 5516 5512 5518 5531 5551 5565 5584 5606 5624 5637 5637 5650 5674 5690 5695 5703 5710 5715 5719 5723 5725 5730 5734
5685 5682 5683 5682 5682 5678 5678 5674 5668 5663 5660 5656 5649 5641 5631 5621 5612 5605 5599 5588 5574 5564 5552 5540 5527 5515 5505 5499 5503 5517 5535 5557 5574 5596 5616 5633 5638 5647 5662 5678 5683 5692 5700 5705 5708 5713 5716 5720 5725
5674 5675 5675 5674 5674 5670 5669 5667 5664 5658 5654 5648 5641 5632 5623 5613 5606 5600 5592 5584 5570 5559 5549 5540 5527 5518 5510 5504 5508 5516 5536 5555 5575 5596 5610 5623 5636 5650 5654 5664 5671 5681 5689 5694 5697 5702 5706 5710 5715
5666 5664 5666 5666 5665 5663 5662 5658 5654 5650 5647 5640 5632 5622 5614 5607 5602 5596 5587 5579 5567 5557 5551 5543 5534 5527 5522 5520 5524 5535 5546 5560 5577 5591 5599 5580 5611 5632 5632 5649 5659 5671 5678 5684 5688 5692 5696 5700 5703
5656 5657 5657 5656 5655 5655 5654 5653 5645 5641 5639 5631 5623 5615 5609 5602 5597 5591 5583 5575 5565 5558 5554 5549 5542 5539 5537 5537 5542 5552 5562 5570 5576 5588 5599 5582 5614 5615 5626 5640 5652 5662 5668 5673 5679 5682 5685 5689 5697